| time (UTC) | temp F | wind direction | speed MPH | gust MPH | rain 1hr in | rain 24hr in | rain mn in | humidity % | barometer mb |
| 20260508161905 | 42 | 289 | 3.0 | 12.0 | 0.00 | 0.04 | 0.04 | 87 | 1013.5 |
| 20260508160904 | 42 | 173 | 5.0 | 11.0 | 0.00 | 0.04 | 0.04 | 92 | 1013.5 |
| 20260508155904 | 42 | 208 | 4.0 | 11.0 | 0.00 | 0.04 | 0.04 | 91 | 1013.4 |
| 20260508154904 | 41 | 271 | 3.0 | 11.0 | 0.00 | 0.04 | 0.04 | 92 | 1013.3 |
| 20260508153904 | 41 | 267 | 8.0 | 12.0 | 0.00 | 0.04 | 0.04 | 94 | 1013.5 |
| 20260508152904 | 40 | 207 | 9.0 | 11.0 | 0.01 | 0.04 | 0.04 | 93 | 1013.4 |
| 20260508151904 | 39 | 200 | 3.0 | 9.0 | 0.01 | 0.04 | 0.04 | 92 | 1013.4 |
| 20260508150904 | 39 | 227 | 6.0 | 12.0 | 0.01 | 0.04 | 0.04 | 92 | 1013.3 |
| 20260508144904 | 39 | 184 | 3.0 | 13.0 | 0.01 | 0.04 | 0.04 | 92 | 1013.3 |
| 20260508143903 | 39 | 140 | 2.0 | 10.0 | 0.01 | 0.04 | 0.04 | 93 | 1013.3 |
| 20260508142903 | 39 | 175 | 7.0 | 8.0 | 0.00 | 0.03 | 0.03 | 92 | 1013.1 |
| 20260508141903 | 39 | 202 | 3.0 | 9.0 | 0.00 | 0.03 | 0.03 | 92 | 1013.0 |
| 20260508140903 | 38 | 225 | 3.0 | 13.0 | 0.00 | 0.03 | 0.03 | 92 | 1012.9 |
| 20260508134902 | 39 | 187 | 11.0 | 12.0 | 0.00 | 0.03 | 0.03 | 89 | 1013.0 |
| 20260508132902 | 41 | 288 | 4.0 | 8.0 | 0.00 | 0.03 | 0.03 | 87 | 1013.0 |
| 20260508130902 | 42 | 128 | 2.0 | 5.0 | 0.00 | 0.03 | 0.03 | 89 | 1012.7 |
| 20260508125902 | 42 | 286 | 1.0 | 6.0 | 0.00 | 0.03 | 0.03 | 90 | 1012.8 |
| 20260508124902 | 41 | 355 | 0.0 | 3.0 | 0.00 | 0.03 | 0.03 | 92 | 1012.5 |
| 20260508123902 | 41 | 277 | 0.0 | 3.0 | 0.00 | 0.03 | 0.03 | 93 | 1012.1 |
| 20260508122901 | 41 | 309 | 1.0 | 4.0 | 0.00 | 0.03 | 0.03 | 95 | 1011.9 |
| 20260508121901 | 41 | 360 | 2.0 | 4.0 | 0.00 | 0.03 | 0.03 | 95 | 1012.0 |
| 20260508120901 | 40 | 123 | 2.0 | 5.0 | 0.00 | 0.03 | 0.03 | 95 | 1012.2 |
| 20260508113901 | 39 | 86 | 4.0 | 4.0 | 0.01 | 0.03 | 0.03 | 96 | 1012.1 |
| 20260508112900 | 39 | 138 | 1.0 | 4.0 | 0.01 | 0.03 | 0.03 | 95 | 1012.5 |
| 20260508111900 | 39 | 192 | 1.0 | 6.0 | 0.01 | 0.03 | 0.03 | 96 | 1012.6 |
| 20260508105900 | 38 | 213 | 3.0 | 6.0 | 0.01 | 0.03 | 0.03 | 96 | 1012.8 |
| 20260508104859 | 38 | 215 | 2.0 | 5.0 | 0.01 | 0.03 | 0.03 | 96 | 1012.6 |
| 20260508102859 | 37 | 216 | 1.0 | 5.0 | 0.00 | 0.02 | 0.02 | 97 | 1012.7 |
| 20260508100859 | 36 | 227 | 1.0 | 4.0 | 0.00 | 0.02 | 0.02 | 97 | 1012.6 |
| 20260508095859 | 35 | 182 | 1.0 | 3.0 | 0.00 | 0.02 | 0.02 | 97 | 1012.5 |
| 20260508094858 | 34 | 171 | 1.0 | 4.0 | 0.00 | 0.02 | 0.02 | 96 | 1012.4 |
| 20260508093858 | 34 | 145 | 0.0 | 0.0 | 0.00 | 0.02 | 0.02 | 95 | 1012.2 |
| 20260508090858 | 36 | 144 | 1.0 | 1.0 | 0.00 | 0.02 | 0.02 | 95 | 1012.3 |
| 20260508085858 | 36 | 144 | 0.0 | 3.0 | 0.00 | 0.02 | 0.02 | 95 | 1012.4 |
| 20260508084857 | 37 | 144 | 2.0 | 3.0 | 0.00 | 0.02 | 0.02 | 95 | 1012.4 |
| 20260508083858 | 37 | 42 | 0.0 | 1.0 | 0.00 | 0.02 | 0.02 | 94 | 1012.5 |
| 20260508080857 | 38 | 342 | 1.0 | 2.0 | 0.02 | 0.02 | 0.02 | 94 | 1012.7 |
| 20260508075857 | 37 | 294 | 0.0 | 4.0 | 0.02 | 0.02 | 0.02 | 94 | 1012.6 |
| 20260508072856 | 37 | 5 | 2.0 | 6.0 | 0.01 | 0.01 | 0.01 | 92 | 1012.6 |
| 20260508071856 | 38 | 5 | 3.0 | 8.0 | 0.01 | 0.01 | 0.01 | 91 | 1012.6 |
| 20260508070856 | 38 | 302 | 4.0 | 9.0 | 0.00 | 0.00 | 0.00 | 90 | 1012.6 |
| 20260508065855 | 39 | 340 | 6.0 | 14.0 | 0.00 | 0.00 | 0.00 | 87 | 1012.7 |
| 20260508064856 | 40 | 313 | 5.0 | 13.0 | 0.00 | 0.00 | 0.00 | 83 | 1012.6 |
| 20260508063855 | 41 | 299 | 5.0 | 9.0 | 0.00 | 0.00 | 0.00 | 79 | 1012.6 |
| 20260508062855 | 41 | 342 | 3.0 | 10.0 | 0.00 | 0.00 | 0.00 | 76 | 1012.5 |
| 20260508061855 | 41 | 302 | 5.0 | 8.0 | 0.00 | 0.00 | 0.00 | 74 | 1012.4 |
| 20260508060855 | 42 | 303 | 4.0 | 6.0 | 0.00 | 0.00 | 0.00 | 73 | 1012.5 |
| 20260508055854 | 41 | 266 | 4.0 | 4.0 | 0.00 | 0.00 | 0.00 | 75 | 1012.3 |
| 20260508054854 | 41 | 276 | 0.0 | 4.0 | 0.00 | 0.00 | 0.00 | 74 | 1012.2 |
| 20260508053855 | 40 | 268 | 1.0 | 3.0 | 0.00 | 0.00 | 0.00 | 76 | 1012.1 |
| 20260508051854 | 40 | 267 | 0.0 | 3.0 | 0.00 | 0.00 | 0.00 | 77 | 1012.0 |
| 20260508050854 | 40 | 267 | 0.0 | 2.0 | 0.00 | 0.00 | 0.00 | 75 | 1012.1 |
| 20260508045854 | 41 | 267 | 0.0 | 3.0 | 0.00 | 0.00 | 0.00 | 74 | 1012.3 |
| 20260508043853 | 41 | 267 | 0.0 | 3.0 | 0.00 | 0.00 | 0.00 | 72 | 1012.2 |
| 20260508042853 | 41 | 226 | 0.0 | 3.0 | 0.00 | 0.00 | 0.00 | 74 | 1012.3 |
| 20260508041853 | 40 | 226 | 0.0 | 3.0 | 0.00 | 0.00 | 0.00 | 78 | 1012.2 |
| 20260508040853 | 39 | 219 | 0.0 | 0.0 | 0.00 | 0.00 | 0.00 | 79 | 1012.1 |
| 20260508034853 | 38 | 219 | 0.0 | 0.0 | 0.00 | 0.00 | 0.00 | 82 | 1012.1 |
| 20260508033853 | 38 | 219 | 0.0 | 0.0 | 0.00 | 0.00 | 0.00 | 82 | 1012.1 |
| 20260508032852 | 37 | 219 | 0.0 | 0.0 | 0.00 | 0.00 | 0.00 | 82 | 1012.0 |
| 20260508031852 | 37 | 219 | 0.0 | 1.0 | 0.00 | 0.00 | 0.00 | 82 | 1012.0 |
| 20260508030852 | 37 | 219 | 0.0 | 2.0 | 0.00 | 0.00 | 0.00 | 81 | 1012.1 |
| 20260508025851 | 37 | 220 | 0.0 | 0.0 | 0.00 | 0.00 | 0.00 | 78 | 1011.7 |
| 20260508024852 | 38 | 220 | 0.0 | 3.0 | 0.00 | 0.00 | 0.00 | 77 | 1011.7 |
| 20260508023852 | 38 | 217 | 3.0 | 4.0 | 0.00 | 0.00 | 0.00 | 77 | 1011.5 |
| 20260508021851 | 39 | 302 | 0.0 | 2.0 | 0.00 | 0.00 | 0.00 | 76 | 1011.3 |
| 20260508015851 | 40 | 306 | 3.0 | 4.0 | 0.00 | 0.00 | 0.00 | 72 | 1011.6 |
| 20260508014850 | 40 | 301 | 2.0 | 3.0 | 0.00 | 0.00 | 0.00 | 72 | 1011.7 |
| 20260508013851 | 40 | 296 | 2.0 | 4.0 | 0.00 | 0.00 | 0.00 | 73 | 1011.7 |
| 20260508012850 | 41 | 300 | 2.0 | 3.0 | 0.00 | 0.00 | 0.00 | 72 | 1011.7 |
| 20260508011850 | 41 | 302 | 2.0 | 4.0 | 0.00 | 0.00 | 0.00 | 71 | 1011.8 |
| 20260508010850 | 42 | 306 | 3.0 | 3.0 | 0.00 | 0.00 | 0.00 | 72 | 1011.7 |
| 20260508005850 | 42 | 302 | 2.0 | 4.0 | 0.00 | 0.00 | 0.00 | 74 | 1011.6 |
| 20260508003850 | 43 | 321 | 3.0 | 4.0 | 0.00 | 0.00 | 0.00 | 71 | 1011.4 |
| 20260508002849 | 44 | 324 | 2.0 | 4.0 | 0.00 | 0.00 | 0.00 | 68 | 1011.5 |
| 20260508001849 | 45 | 311 | 3.0 | 4.0 | 0.00 | 0.00 | 0.00 | 68 | 1011.2 |
| 20260508000849 | 45 | 310 | 2.0 | 4.0 | 0.00 | 0.00 | 0.00 | 68 | 1011.1 |
| 20260507235849 | 46 | 332 | 2.0 | 4.0 | 0.00 | 0.00 | 0.00 | 67 | 1011.1 |
| 20260507234848 | 46 | 314 | 2.0 | 4.0 | 0.00 | 0.00 | 0.00 | 66 | 1010.9 |
| 20260507233849 | 46 | 342 | 2.0 | 6.0 | 0.00 | 0.00 | 0.00 | 64 | 1010.9 |
| 20260507232848 | 47 | 319 | 4.0 | 9.0 | 0.00 | 0.00 | 0.00 | 62 | 1010.9 |
| 20260507230848 | 48 | 322 | 3.0 | 8.0 | 0.00 | 0.00 | 0.00 | 60 | 1010.9 |
| 20260507225848 | 48 | 307 | 1.0 | 10.0 | 0.00 | 0.00 | 0.00 | 61 | 1010.8 |
| 20260507224848 | 48 | 333 | 5.0 | 9.0 | 0.00 | 0.00 | 0.00 | 59 | 1010.7 |
| 20260507222848 | 48 | 317 | 10.0 | 13.0 | 0.00 | 0.00 | 0.00 | 58 | 1010.7 |
| 20260507221847 | 48 | 346 | 4.0 | 12.0 | 0.00 | 0.00 | 0.00 | 59 | 1010.7 |
| 20260507215847 | 49 | 340 | 3.0 | 9.0 | 0.00 | 0.00 | 0.00 | 57 | 1010.5 |
| 20260507212846 | 51 | 5 | 9.0 | 13.0 | 0.00 | 0.00 | 0.00 | 57 | 1010.5 |
| 20260507205846 | 49 | 314 | 4.0 | 9.0 | 0.00 | 0.00 | 0.00 | 56 | 1010.7 |
| 20260507204846 | 49 | 234 | 3.0 | 7.0 | 0.00 | 0.00 | 0.00 | 58 | 1010.6 |
| 20260507203846 | 49 | 315 | 3.0 | 11.0 | 0.00 | 0.00 | 0.00 | 58 | 1010.6 |
| 20260507202845 | 49 | 298 | 4.0 | 12.0 | 0.00 | 0.00 | 0.00 | 58 | 1010.9 |
| 20260507201845 | 49 | 341 | 4.0 | 13.0 | 0.00 | 0.00 | 0.00 | 58 | 1010.9 |
| 20260507200845 | 49 | 336 | 9.0 | 14.0 | 0.00 | 0.00 | 0.00 | 58 | 1011.0 |
| 20260507194845 | 49 | 349 | 15.0 | 16.0 | 0.00 | 0.00 | 0.00 | 57 | 1011.2 |
| 20260507193844 | 50 | 296 | 5.0 | 16.0 | 0.00 | 0.00 | 0.00 | 56 | 1011.4 |
| 20260507191844 | 50 | 310 | 10.0 | 16.0 | 0.00 | 0.00 | 0.00 | 58 | 1011.6 |
| 20260507190844 | 50 | 298 | 5.0 | 16.0 | 0.00 | 0.01 | 0.00 | 56 | 1011.6 |
| 20260507184844 | 50 | 254 | 1.0 | 11.0 | 0.00 | 0.02 | 0.00 | 57 | 1012.1 |
| 20260507183844 | 50 | 323 | 3.0 | 14.0 | 0.00 | 0.02 | 0.00 | 57 | 1012.3 |
| 20260507182844 | 50 | 285 | 4.0 | 12.0 | 0.00 | 0.02 | 0.00 | 62 | 1012.1 |
| 20260507181843 | 49 | 313 | 11.0 | 15.0 | 0.00 | 0.02 | 0.00 | 59 | 1012.1 |
| 20260507174843 | 51 | 5 | 4.0 | 14.0 | 0.00 | 0.02 | 0.00 | 61 | 1012.6 |
| 20260507173842 | 49 | 319 | 4.0 | 15.0 | 0.00 | 0.03 | 0.00 | 58 | 1012.5 |
| 20260507171842 | 49 | 304 | 7.0 | 14.0 | 0.00 | 0.04 | 0.00 | 62 | 1012.8 |
| 20260507170912 | 49 | 355 | 5.0 | 12.0 | 0.00 | 0.04 | 0.00 | 66 | 1012.9 |
| 20260507165842 | 48 | 29 | 4.0 | 17.0 | 0.00 | 0.05 | 0.00 | 65 | 1012.9 |
| 20260507164842 | 48 | 304 | 5.0 | 16.0 | 0.00 | 0.05 | 0.00 | 66 | 1012.9 |
| 20260507163841 | 48 | 304 | 5.0 | 12.0 | 0.00 | 0.05 | 0.00 | 68 | 1013.0 |
| 20260507162911 | 47 | 311 | 11.0 | 16.0 | 0.00 | 0.05 | 0.00 | 70 | 1012.9 |